CZ-6A DEB

基本信息
目录编号:
60714
目录名称:
CZ-6A DEB
国际标识:
2024-140DT
轨道中心:
EARTH
物体状态:
在轨
发射日期:
2024-08-06 UTC
轨道信息
数据来源: 国际轨道数据
星历时间: 2026-09-10T19:52:28+0800
半长轴: 7099.747km
偏心率: 0.0106021
轨道倾角: 89.037°
近地点辐角: 359.961°
升交点赤经: 264.455°
平近点角: 0.157°
近地点: 646.337km
远地点: 796.883km
周期: 99.226分钟
每日圈数: 14.512376
详细信息
发射场:
TSC
轨道高度:
LEO
数据来源:
AOE Integration Group
参考系:
TEME
时间系统:
UTC
历元类型:
SGP4
2D轨道图
3D轨道图
轨道高度分析图
轨道倾角分析图
轨道综合分析图
查看轨道综合分析图